Regional Weather Roundup
Issued by NWS

Home | Current Version | Previous Version | Graphics & Text | Print | Product List | Glossary On
Versions: 1 2 3 4 5 6 7 8 9 10 11 12 13 14 15 16 17 18 19 20 21 22 23 24 25 26 27 28 29 30 31 32 33 34 35 36 37 38 39 40 41 42 43 44 45 46 47 48 49 50
404
ASUS43 KBIS 241502
RWRND

NORTH DAKOTA REGIONAL WEATHER ROUNDUP
NATIONAL WEATHER SERVICE BISMARCK ND
1000 AM CDT FRI MAR 24 2017

NOTE: "FAIR" INDICATES FEW OR NO CLOUDS BELOW 12,000 FEET WITH NO
SIGNIFICANT WEATHER AND/OR OBSTRUCTIONS TO VISIBILITY.


NDZ001>003-009>011-017-241600-
NORTHWEST NORTH DAKOTA

CITY           SKY/WX    TMP DP  RH WIND       PRES   REMARKS
WILLISTON      FAIR      36  31  82 CALM      30.11S
MINOT          FAIR      31  27  85 E9        30.15R
MINOT AFB      SUNNY     30  26  84 SE9       30.15R
$$

NDZ018>021-031>035-040>046-241600-
SOUTHWEST NORTH DAKOTA

CITY           SKY/WX    TMP DP  RH WIND       PRES   REMARKS
BISMARCK       FAIR      35  30  82 NE9       30.14R
DICKINSON      FAIR      33  30  88 E6        30.08R
GARRISON         N/A     32  28  85 NE5       30.14R
HETTINGER ARPT FOG       33  32  96 NE7       30.11R VSB<1/4
$$

NDZ004>008-012>016-024-026-027-054-241600-
NORTHEAST NORTH DAKOTA

CITY           SKY/WX    TMP DP  RH WIND       PRES   REMARKS
GRAND FORKS    MOSUNNY   32  28  85 N17       30.15R
GRND FRKS AFB  SUNNY     31  26  81 N17       30.16R
DEVILS LAKE    FAIR      28  24  85 NE14      30.17R WCI  17
$$

NDZ022-023-025-028>030-036>039-047>053-241600-
SOUTHEAST NORTH DAKOTA

CITY           SKY/WX    TMP DP  RH WIND       PRES   REMARKS
FARGO          CLOUDY    36  33  89 N16       30.10R
JAMESTOWN      FAIR      33  26  75 NE10      30.12R
$$





USA.gov is the U.S. government's official web portal to all federal, state and local government web resources and services.